owner,sensor,date,latitude,longitude,vertical_datum,wind_speed,wind_to_direction,wind_speed_of_gust,qcFlag 
ADCP,ioos:station:wmo:42887:1,2010-09-01T00:00:00Z,28.1910,-88.4960,48.2,5.5,112.0,99.0,'11111222,11111222,11144222' 
ADCP,ioos:station:wmo:42887:1,2010-09-01T00:20:00Z,28.1910,-88.4960,48.2,5.3,107.0,99.0,'11111222,11111222,11144222' 
ADCP,ioos:station:wmo:42887:1,2010-09-01T00:40:00Z,28.1910,-88.4960,48.2,4.6,110.0,99.0,'11111222,11111222,11144222' 
ADCP,ioos:station:wmo:42887:1,2010-09-01T01:00:00Z,28.1910,-88.4960,48.2,7.5,113.0,99.0,'11111222,11111222,11144222' 
ADCP,ioos:station:wmo:42887:1,2010-09-01T01:20:00Z,28.1910,-88.4960,48.2,7.5,115.0,99.0,'11111222,11111222,11144222' 
ADCP,ioos:station:wmo:42887:1,2010-09-01T01:40:00Z,28.1910,-88.4960,48.2,8.7,110.0,99.0,'11111222,11111222,11144222' 
ADCP,ioos:station:wmo:42887:1,2010-09-01T02:00:00Z,28.1910,-88.4960,48.2,7.4,111.0,99.0,'11111222,11111222,11144222' 
ADCP,ioos:station:wmo:42887:1,2010-09-01T02:20:00Z,28.1910,-88.4960,48.2,4.2,100.0,99.0,'11111222,11111222,11144222' 
ADCP,ioos:station:wmo:42887:1,2010-09-01T02:40:00Z,28.1910,-88.4960,48.2,6.2,104.0,99.0,'11111222,11111222,11144222' 
ADCP,ioos:station:wmo:42887:1,2010-09-01T03:00:00Z,28.1910,-88.4960,48.2,7.2,108.0,99.0,'11111222,11111222,11144222' 
ADCP,ioos:station:wmo:42887:1,2010-09-01T03:20:00Z,28.1910,-88.4960,48.2,6.3,111.0,99.0,'11111222,11111222,11144222' 
ADCP,ioos:station:wmo:42887:1,2010-09-01T03:40:00Z,28.1910,-88.4960,48.2,7.2,121.0,99.0,'11111222,11111222,11144222' 
ADCP,ioos:station:wmo:42887:1,2010-09-01T04:00:00Z,28.1910,-88.4960,48.2,6.3,115.0,99.0,'11111222,11111222,11144222' 
ADCP,ioos:station:wmo:42887:1,2010-09-01T04:20:00Z,28.1910,-88.4960,48.2,7.9,110.0,99.0,'11111222,11111222,11144222' 
ADCP,ioos:station:wmo:42887:1,2010-09-01T04:40:00Z,28.1910,-88.4960,48.2,7.9,120.0,99.0,'11111222,11111222,11144222' 
ADCP,ioos:station:wmo:42887:1,2010-09-01T05:00:00Z,28.1910,-88.4960,48.2,7.9,113.0,99.0,'11111222,11111222,11144222' 
ADCP,ioos:station:wmo:42887:1,2010-09-01T05:20:00Z,28.1910,-88.4960,48.2,8.4,121.0,99.0,'11111222,11111222,11144222' 
ADCP,ioos:station:wmo:42887:1,2010-09-01T05:40:00Z,28.1910,-88.4960,48.2,7.9,110.0,99.0,'11111222,11111222,11144222' 
ADCP,ioos:station:wmo:42887:1,2010-09-01T06:00:00Z,28.1910,-88.4960,48.2,7.6,110.0,99.0,'11111222,11111222,11144222' 
ADCP,ioos:station:wmo:42887:1,2010-09-01T06:20:00Z,28.1910,-88.4960,48.2,9.0,111.0,99.0,'11111222,11111222,11144222' 
ADCP,ioos:station:wmo:42887:1,2010-09-01T06:40:00Z,28.1910,-88.4960,48.2,8.9,116.0,99.0,'11111222,11111222,11144222' 
ADCP,ioos:station:wmo:42887:1,2010-09-01T07:00:00Z,28.1910,-88.4960,48.2,8.6,110.0,99.0,'11111222,11111222,11144222' 
ADCP,ioos:station:wmo:42887:1,2010-09-01T07:20:00Z,28.1910,-88.4960,48.2,7.8,108.0,99.0,'11111222,11111222,11144222' 
ADCP,ioos:station:wmo:42887:1,2010-09-01T07:40:00Z,28.1910,-88.4960,48.2,7.9,107.0,99.0,'11111222,11111222,11144222' 
ADCP,ioos:station:wmo:42887:1,2010-09-01T08:00:00Z,28.1910,-88.4960,48.2,7.1,111.0,99.0,'11111222,11111222,11144222' 
ADCP,ioos:station:wmo:42887:1,2010-09-01T08:20:00Z,28.1910,-88.4960,48.2,7.8,109.0,99.0,'11111222,11111222,11144222' 
ADCP,ioos:station:wmo:42887:1,2010-09-01T08:40:00Z,28.1910,-88.4960,48.2,8.3,115.0,99.0,'11111222,11111222,11144222' 
ADCP,ioos:station:wmo:42887:1,2010-09-01T09:00:00Z,28.1910,-88.4960,48.2,7.3,101.0,99.0,'11111222,11111222,11144222' 
ADCP,ioos:station:wmo:42887:1,2010-09-01T09:20:00Z,28.1910,-88.4960,48.2,7.2,105.0,99.0,'11111222,11111222,11144222' 
ADCP,ioos:station:wmo:42887:1,2010-09-01T09:40:00Z,28.1910,-88.4960,48.2,7.3,105.0,99.0,'11111222,11111222,11144222' 
ADCP,ioos:station:wmo:42887:1,2010-09-01T10:00:00Z,28.1910,-88.4960,48.2,7.8,107.0,99.0,'11111222,11111222,11144222' 
ADCP,ioos:station:wmo:42887:1,2010-09-01T10:20:00Z,28.1910,-88.4960,48.2,6.9,111.0,99.0,'11111222,11111222,11144222' 
ADCP,ioos:station:wmo:42887:1,2010-09-01T10:40:00Z,28.1910,-88.4960,48.2,5.4,106.0,99.0,'11111222,11111222,11144222' 
ADCP,ioos:station:wmo:42887:1,2010-09-01T11:00:00Z,28.1910,-88.4960,48.2,7.0,100.0,99.0,'11111222,11111222,11144222' 
ADCP,ioos:station:wmo:42887:1,2010-09-01T11:20:00Z,28.1910,-88.4960,48.2,7.6,105.0,99.0,'11111222,11111222,11144222' 
ADCP,ioos:station:wmo:42887:1,2010-09-01T11:40:00Z,28.1910,-88.4960,48.2,5.6,98.0,99.0,'11111222,11111222,11144222' 
ADCP,ioos:station:wmo:42887:1,2010-09-01T12:00:00Z,28.1910,-88.4960,48.2,6.9,101.0,99.0,'11111222,11111222,11144222' 
ADCP,ioos:station:wmo:42887:1,2010-09-01T12:20:00Z,28.1910,-88.4960,48.2,6.4,104.0,99.0,'11111222,11111222,11144222' 
ADCP,ioos:station:wmo:42887:1,2010-09-01T12:40:00Z,28.1910,-88.4960,48.2,6.1,94.0,99.0,'11111222,11111222,11144222' 
ADCP,ioos:station:wmo:42887:1,2010-09-01T13:00:00Z,28.1910,-88.4960,48.2,8.2,109.0,99.0,'11111222,11111222,11144222' 
ADCP,ioos:station:wmo:42887:1,2010-09-01T13:20:00Z,28.1910,-88.4960,48.2,8.2,107.0,99.0,'11111222,11111222,11144222' 
ADCP,ioos:station:wmo:42887:1,2010-09-01T13:40:00Z,28.1910,-88.4960,48.2,8.6,118.0,99.0,'11111222,11111222,11144222' 
ADCP,ioos:station:wmo:42887:1,2010-09-01T14:00:00Z,28.1910,-88.4960,48.2,6.2,116.0,99.0,'11111222,11111222,11144222' 
ADCP,ioos:station:wmo:42887:1,2010-09-01T14:20:00Z,28.1910,-88.4960,48.2,10.5,117.0,99.0,'11111222,11111222,11144222' 
ADCP,ioos:station:wmo:42887:1,2010-09-01T14:40:00Z,28.1910,-88.4960,48.2,9.9,119.0,99.0,'11111222,11111222,11144222' 
ADCP,ioos:station:wmo:42887:1,2010-09-01T15:00:00Z,28.1910,-88.4960,48.2,9.1,122.0,99.0,'11111222,11111222,11144222' 
ADCP,ioos:station:wmo:42887:1,2010-09-01T15:20:00Z,28.1910,-88.4960,48.2,9.4,132.0,99.0,'11111222,11111222,11144222' 
ADCP,ioos:station:wmo:42887:1,2010-09-01T15:40:00Z,28.1910,-88.4960,48.2,6.8,124.0,99.0,'11111222,11111222,11144222' 
ADCP,ioos:station:wmo:42887:1,2010-09-01T16:00:00Z,28.1910,-88.4960,48.2,6.5,142.0,99.0,'11111222,11111222,11144222' 
ADCP,ioos:station:wmo:42887:1,2010-09-01T16:20:00Z,28.1910,-88.4960,48.2,6.1,155.0,99.0,'11111222,11111222,11144222' 
ADCP,ioos:station:wmo:42887:1,2010-09-01T16:40:00Z,28.1910,-88.4960,48.2,5.5,134.0,99.0,'11111222,11111222,11144222' 
ADCP,ioos:station:wmo:42887:1,2010-09-01T17:00:00Z,28.1910,-88.4960,48.2,4.6,134.0,99.0,'11111222,11111222,11144222' 
ADCP,ioos:station:wmo:42887:1,2010-09-01T17:20:00Z,28.1910,-88.4960,48.2,2.7,146.0,99.0,'11111222,11111222,11144222' 
ADCP,ioos:station:wmo:42887:1,2010-09-01T17:40:00Z,28.1910,-88.4960,48.2,6.0,122.0,99.0,'11111222,11111222,11144222' 
ADCP,ioos:station:wmo:42887:1,2010-09-01T18:00:00Z,28.1910,-88.4960,48.2,5.5,131.0,99.0,'11111222,11111222,11144222' 
ADCP,ioos:station:wmo:42887:1,2010-09-01T18:20:00Z,28.1910,-88.4960,48.2,7.9,117.0,99.0,'11111222,11111222,11144222' 
ADCP,ioos:station:wmo:42887:1,2010-09-01T18:40:00Z,28.1910,-88.4960,48.2,7.7,122.0,99.0,'11111222,11111222,11144222' 
ADCP,ioos:station:wmo:42887:1,2010-09-01T19:00:00Z,28.1910,-88.4960,48.2,7.3,124.0,99.0,'11111222,11111222,11144222' 
ADCP,ioos:station:wmo:42887:1,2010-09-01T19:20:00Z,28.1910,-88.4960,48.2,7.1,120.0,99.0,'11111222,11111222,11144222' 
ADCP,ioos:station:wmo:42887:1,2010-09-01T19:40:00Z,28.1910,-88.4960,48.2,6.0,118.0,99.0,'11111222,11111222,11144222' 
ADCP,ioos:station:wmo:42887:1,2010-09-01T20:00:00Z,28.1910,-88.4960,48.2,6.2,112.0,99.0,'11111222,11111222,11144222' 
ADCP,ioos:station:wmo:42887:1,2010-09-01T20:20:00Z,28.1910,-88.4960,48.2,7.6,119.0,99.0,'11111222,11111222,11144222' 
ADCP,ioos:station:wmo:42887:1,2010-09-01T20:40:00Z,28.1910,-88.4960,48.2,6.4,110.0,99.0,'11111222,11111222,11144222' 
ADCP,ioos:station:wmo:42887:1,2010-09-01T21:00:00Z,28.1910,-88.4960,48.2,6.5,114.0,99.0,'11111222,11111222,11144222' 
ADCP,ioos:station:wmo:42887:1,2010-09-01T21:20:00Z,28.1910,-88.4960,48.2,6.4,107.0,99.0,'11111222,11111222,11144222' 
ADCP,ioos:station:wmo:42887:1,2010-09-01T22:00:00Z,28.1910,-88.4960,48.2,7.3,89.0,99.0,'11111222,11111222,11144222' 
ADCP,ioos:station:wmo:42887:1,2010-09-01T22:40:00Z,28.1910,-88.4960,48.2,6.1,102.0,99.0,'11111222,11111222,11144222' 
ADCP,ioos:station:wmo:42887:1,2010-09-01T23:00:00Z,28.1910,-88.4960,48.2,7.3,107.0,99.0,'11111222,11111222,11144222' 
ADCP,ioos:station:wmo:42887:1,2010-09-01T23:20:00Z,28.1910,-88.4960,48.2,8.7,112.0,99.0,'11111222,11111222,11144222' 
ADCP,ioos:station:wmo:42887:1,2010-09-01T23:40:00Z,28.1910,-88.4960,48.2,8.3,85.0,99.0,'11111222,11111222,11144222' 
ADCP,ioos:station:wmo:42887:1,2010-09-02T00:00:00Z,28.1910,-88.4960,48.2,5.1,109.0,99.0,'11111222,11111222,11144222' 
ADCP,ioos:station:wmo:42887:1,2010-09-02T00:20:00Z,28.1910,-88.4960,48.2,6.1,110.0,99.0,'11111222,11111222,11144222' 
ADCP,ioos:station:wmo:42887:1,2010-09-02T00:40:00Z,28.1910,-88.4960,48.2,4.1,116.0,99.0,'11111222,11111222,11144222' 
ADCP,ioos:station:wmo:42887:1,2010-09-02T01:00:00Z,28.1910,-88.4960,48.2,7.5,100.0,99.0,'11111222,11111222,11144222' 
ADCP,ioos:station:wmo:42887:1,2010-09-02T01:20:00Z,28.1910,-88.4960,48.2,10.0,94.0,99.0,'11111222,11111222,11144222' 
ADCP,ioos:station:wmo:42887:1,2010-09-02T01:40:00Z,28.1910,-88.4960,48.2,8.7,85.0,99.0,'11111222,11111222,11144222' 
ADCP,ioos:station:wmo:42887:1,2010-09-02T02:00:00Z,28.1910,-88.4960,48.2,6.8,91.0,99.0,'11111222,11111222,11144222' 
ADCP,ioos:station:wmo:42887:1,2010-09-02T02:20:00Z,28.1910,-88.4960,48.2,4.6,84.0,99.0,'11111222,11111222,11144222' 
ADCP,ioos:station:wmo:42887:1,2010-09-02T02:40:00Z,28.1910,-88.4960,48.2,6.0,118.0,99.0,'11111222,11111222,11144222' 
ADCP,ioos:station:wmo:42887:1,2010-09-02T03:00:00Z,28.1910,-88.4960,48.2,7.9,106.0,99.0,'11111222,11111222,11144222' 
ADCP,ioos:station:wmo:42887:1,2010-09-02T03:20:00Z,28.1910,-88.4960,48.2,8.3,109.0,99.0,'11111222,11111222,11144222' 
ADCP,ioos:station:wmo:42887:1,2010-09-02T03:40:00Z,28.1910,-88.4960,48.2,6.3,108.0,99.0,'11111222,11111222,11144222' 
ADCP,ioos:station:wmo:42887:1,2010-09-02T04:00:00Z,28.1910,-88.4960,48.2,8.3,115.0,99.0,'11111222,11111222,11144222' 
ADCP,ioos:station:wmo:42887:1,2010-09-02T04:20:00Z,28.1910,-88.4960,48.2,8.5,107.0,99.0,'11111222,11111222,11144222' 
ADCP,ioos:station:wmo:42887:1,2010-09-02T05:00:00Z,28.1910,-88.4960,48.2,7.9,111.0,99.0,'11111222,11111222,11144222' 
ADCP,ioos:station:wmo:42887:1,2010-09-02T05:20:00Z,28.1910,-88.4960,48.2,7.4,109.0,99.0,'11111222,11111222,11144222' 
ADCP,ioos:station:wmo:42887:1,2010-09-02T05:40:00Z,28.1910,-88.4960,48.2,8.1,96.0,99.0,'11111222,11111222,11144222' 
ADCP,ioos:station:wmo:42887:1,2010-09-02T06:00:00Z,28.1910,-88.4960,48.2,9.0,115.0,99.0,'11111222,11111222,11144222' 
ADCP,ioos:station:wmo:42887:1,2010-09-02T06:20:00Z,28.1910,-88.4960,48.2,7.6,114.0,99.0,'11111222,11111222,11144222' 
ADCP,ioos:station:wmo:42887:1,2010-09-02T06:40:00Z,28.1910,-88.4960,48.2,6.4,122.0,99.0,'11111222,11111222,11144222' 
ADCP,ioos:station:wmo:42887:1,2010-09-02T07:00:00Z,28.1910,-88.4960,48.2,8.4,110.0,99.0,'11111222,11111222,11144222' 
ADCP,ioos:station:wmo:42887:1,2010-09-02T07:20:00Z,28.1910,-88.4960,48.2,7.2,109.0,99.0,'11111222,11111222,11144222' 
ADCP,ioos:station:wmo:42887:1,2010-09-02T07:40:00Z,28.1910,-88.4960,48.2,5.9,124.0,99.0,'11111222,11111222,11144222' 
ADCP,ioos:station:wmo:42887:1,2010-09-02T08:00:00Z,28.1910,-88.4960,48.2,4.7,116.0,99.0,'11111222,11111222,11144222' 
ADCP,ioos:station:wmo:42887:1,2010-09-02T08:20:00Z,28.1910,-88.4960,48.2,7.2,111.0,99.0,'11111222,11111222,11144222' 
ADCP,ioos:station:wmo:42887:1,2010-09-02T08:40:00Z,28.1910,-88.4960,48.2,6.9,112.0,99.0,'11111222,11111222,11144222' 
ADCP,ioos:station:wmo:42887:1,2010-09-02T09:00:00Z,28.1910,-88.4960,48.2,6.4,120.0,99.0,'11111222,11111222,11144222' 
ADCP,ioos:station:wmo:42887:1,2010-09-02T09:20:00Z,28.1910,-88.4960,48.2,5.2,109.0,99.0,'11111222,11111222,11144222' 
ADCP,ioos:station:wmo:42887:1,2010-09-02T09:40:00Z,28.1910,-88.4960,48.2,5.1,144.0,99.0,'11111222,11111222,11144222' 
ADCP,ioos:station:wmo:42887:1,2010-09-02T10:00:00Z,28.1910,-88.4960,48.2,5.5,124.0,99.0,'11111222,11111222,11144222' 
ADCP,ioos:station:wmo:42887:1,2010-09-02T10:20:00Z,28.1910,-88.4960,48.2,6.6,126.0,99.0,'11111222,11111222,11144222' 
ADCP,ioos:station:wmo:42887:1,2010-09-02T10:40:00Z,28.1910,-88.4960,48.2,6.3,148.0,99.0,'11111222,11111222,11144222' 
ADCP,ioos:station:wmo:42887:1,2010-09-02T11:00:00Z,28.1910,-88.4960,48.2,5.7,124.0,99.0,'11111222,11111222,11144222' 
ADCP,ioos:station:wmo:42887:1,2010-09-02T11:20:00Z,28.1910,-88.4960,48.2,6.8,122.0,99.0,'11111222,11111222,11144222' 
ADCP,ioos:station:wmo:42887:1,2010-09-02T11:40:00Z,28.1910,-88.4960,48.2,6.4,123.0,99.0,'11111222,11111222,11144222' 
ADCP,ioos:station:wmo:42887:1,2010-09-02T12:00:00Z,28.1910,-88.4960,48.2,7.5,122.0,99.0,'11111222,11111222,11144222' 
ADCP,ioos:station:wmo:42887:1,2010-09-02T12:20:00Z,28.1910,-88.4960,48.2,7.5,125.0,99.0,'11111222,11111222,11144222' 
ADCP,ioos:station:wmo:42887:1,2010-09-02T12:40:00Z,28.1910,-88.4960,48.2,6.1,119.0,99.0,'11111222,11111222,11144222' 
ADCP,ioos:station:wmo:42887:1,2010-09-02T13:00:00Z,28.1910,-88.4960,48.2,6.7,120.0,99.0,'11111222,11111222,11144222' 
ADCP,ioos:station:wmo:42887:1,2010-09-02T13:20:00Z,28.1910,-88.4960,48.2,6.0,121.0,99.0,'11111222,11111222,11144222' 
ADCP,ioos:station:wmo:42887:1,2010-09-02T13:40:00Z,28.1910,-88.4960,48.2,5.9,127.0,99.0,'11111222,11111222,11144222' 
ADCP,ioos:station:wmo:42887:1,2010-09-02T14:00:00Z,28.1910,-88.4960,48.2,5.7,119.0,99.0,'11111222,11111222,11144222' 
ADCP,ioos:station:wmo:42887:1,2010-09-02T14:20:00Z,28.1910,-88.4960,48.2,6.9,118.0,99.0,'11111222,11111222,11144222' 
ADCP,ioos:station:wmo:42887:1,2010-09-02T14:40:00Z,28.1910,-88.4960,48.2,6.3,118.0,99.0,'11111222,11111222,11144222' 
ADCP,ioos:station:wmo:42887:1,2010-09-02T15:00:00Z,28.1910,-88.4960,48.2,4.7,113.0,99.0,'11111222,11111222,11144222' 
ADCP,ioos:station:wmo:42887:1,2010-09-02T15:20:00Z,28.1910,-88.4960,48.2,2.5,116.0,99.0,'11111222,11111222,11144222' 
ADCP,ioos:station:wmo:42887:1,2010-09-02T15:40:00Z,28.1910,-88.4960,48.2,5.2,111.0,99.0,'11111222,11111222,11144222' 
ADCP,ioos:station:wmo:42887:1,2010-09-02T16:00:00Z,28.1910,-88.4960,48.2,5.2,111.0,99.0,'11111222,11111222,11144222' 
ADCP,ioos:station:wmo:42887:1,2010-09-02T16:20:00Z,28.1910,-88.4960,48.2,4.3,112.0,99.0,'11111222,11111222,11144222' 
ADCP,ioos:station:wmo:42887:1,2010-09-02T16:40:00Z,28.1910,-88.4960,48.2,6.1,102.0,99.0,'11111222,11111222,11144222' 
ADCP,ioos:station:wmo:42887:1,2010-09-02T17:00:00Z,28.1910,-88.4960,48.2,4.7,107.0,99.0,'11111222,11111222,11144222' 
ADCP,ioos:station:wmo:42887:1,2010-09-02T17:20:00Z,28.1910,-88.4960,48.2,4.8,105.0,99.0,'11111222,11111222,11144222' 
ADCP,ioos:station:wmo:42887:1,2010-09-02T17:40:00Z,28.1910,-88.4960,48.2,4.5,106.0,99.0,'11111222,11111222,11144222' 
ADCP,ioos:station:wmo:42887:1,2010-09-02T18:00:00Z,28.1910,-88.4960,48.2,4.5,104.0,99.0,'11111222,11111222,11144222' 
ADCP,ioos:station:wmo:42887:1,2010-09-02T18:20:00Z,28.1910,-88.4960,48.2,4.8,107.0,99.0,'11111222,11111222,11144222' 
ADCP,ioos:station:wmo:42887:1,2010-09-02T18:40:00Z,28.1910,-88.4960,48.2,4.7,108.0,99.0,'11111222,11111222,11144222' 
ADCP,ioos:station:wmo:42887:1,2010-09-02T19:00:00Z,28.1910,-88.4960,48.2,4.8,110.0,99.0,'11111222,11111222,11144222' 
ADCP,ioos:station:wmo:42887:1,2010-09-02T19:20:00Z,28.1910,-88.4960,48.2,3.6,112.0,99.0,'11111222,11111222,11144222' 
ADCP,ioos:station:wmo:42887:1,2010-09-02T19:40:00Z,28.1910,-88.4960,48.2,4.1,94.0,99.0,'11111222,11111222,11144222' 
ADCP,ioos:station:wmo:42887:1,2010-09-02T20:00:00Z,28.1910,-88.4960,48.2,4.0,111.0,99.0,'11111222,11111222,11144222' 
ADCP,ioos:station:wmo:42887:1,2010-09-02T20:20:00Z,28.1910,-88.4960,48.2,4.3,93.0,99.0,'11111222,11111222,11144222' 
ADCP,ioos:station:wmo:42887:1,2010-09-02T20:40:00Z,28.1910,-88.4960,48.2,4.8,103.0,99.0,'11111222,11111222,11144222' 
ADCP,ioos:station:wmo:42887:1,2010-09-02T21:00:00Z,28.1910,-88.4960,48.2,4.8,89.0,99.0,'11111222,11111222,11144222' 
ADCP,ioos:station:wmo:42887:1,2010-09-02T21:20:00Z,28.1910,-88.4960,48.2,4.2,95.0,99.0,'11111222,11111222,11144222' 
ADCP,ioos:station:wmo:42887:1,2010-09-02T21:40:00Z,28.1910,-88.4960,48.2,4.5,92.0,99.0,'11111222,11111222,11144222' 
ADCP,ioos:station:wmo:42887:1,2010-09-02T22:00:00Z,28.1910,-88.4960,48.2,5.2,98.0,99.0,'11111222,11111222,11144222' 
ADCP,ioos:station:wmo:42887:1,2010-09-02T22:20:00Z,28.1910,-88.4960,48.2,4.9,86.0,99.0,'11111222,11111222,11144222' 
ADCP,ioos:station:wmo:42887:1,2010-09-02T22:40:00Z,28.1910,-88.4960,48.2,5.7,88.0,99.0,'11111222,11111222,11144222' 
ADCP,ioos:station:wmo:42887:1,2010-09-02T23:20:00Z,28.1910,-88.4960,48.2,5.9,109.0,99.0,'11111222,11111222,11144222' 
ADCP,ioos:station:wmo:42887:1,2010-09-02T23:40:00Z,28.1910,-88.4960,48.2,5.5,98.0,99.0,'11111222,11111222,11144222' 
ADCP,ioos:station:wmo:42887:1,2010-09-03T00:00:00Z,28.1910,-88.4960,48.2,4.6,89.0,99.0,'11111222,11111222,11144222' 
ADCP,ioos:station:wmo:42887:1,2010-09-03T00:20:00Z,28.1910,-88.4960,48.2,5.2,97.0,99.0,'11111222,11111222,11144222' 
ADCP,ioos:station:wmo:42887:1,2010-09-03T00:40:00Z,28.1910,-88.4960,48.2,4.8,105.0,99.0,'11111222,11111222,11144222' 
ADCP,ioos:station:wmo:42887:1,2010-09-03T01:00:00Z,28.1910,-88.4960,48.2,4.5,98.0,99.0,'11111222,11111222,11144222' 
ADCP,ioos:station:wmo:42887:1,2010-09-03T01:20:00Z,28.1910,-88.4960,48.2,4.3,95.0,99.0,'11111222,11111222,11144222' 
ADCP,ioos:station:wmo:42887:1,2010-09-03T01:40:00Z,28.1910,-88.4960,48.2,4.8,105.0,99.0,'11111222,11111222,11144222' 
ADCP,ioos:station:wmo:42887:1,2010-09-03T02:00:00Z,28.1910,-88.4960,48.2,4.6,108.0,99.0,'11111222,11111222,11144222' 
ADCP,ioos:station:wmo:42887:1,2010-09-03T02:20:00Z,28.1910,-88.4960,48.2,4.4,108.0,99.0,'11111222,11111222,11144222' 
ADCP,ioos:station:wmo:42887:1,2010-09-03T02:40:00Z,28.1910,-88.4960,48.2,3.3,110.0,99.0,'11111222,11111222,11144222' 
ADCP,ioos:station:wmo:42887:1,2010-09-03T03:00:00Z,28.1910,-88.4960,48.2,4.9,120.0,99.0,'11111222,11111222,11144222' 
ADCP,ioos:station:wmo:42887:1,2010-09-03T03:20:00Z,28.1910,-88.4960,48.2,3.6,127.0,99.0,'11111222,11111222,11144222' 
ADCP,ioos:station:wmo:42887:1,2010-09-03T03:40:00Z,28.1910,-88.4960,48.2,3.3,121.0,99.0,'11111222,11111222,11144222' 
ADCP,ioos:station:wmo:42887:1,2010-09-03T04:00:00Z,28.1910,-88.4960,48.2,3.0,133.0,99.0,'11111222,11111222,11144222' 
ADCP,ioos:station:wmo:42887:1,2010-09-03T04:20:00Z,28.1910,-88.4960,48.2,3.8,154.0,99.0,'11111222,11111222,11144222' 
ADCP,ioos:station:wmo:42887:1,2010-09-03T04:40:00Z,28.1910,-88.4960,48.2,3.5,145.0,99.0,'11111222,11111222,11144222' 
ADCP,ioos:station:wmo:42887:1,2010-09-03T05:00:00Z,28.1910,-88.4960,48.2,2.6,155.0,99.0,'11111222,11111222,11144222' 
ADCP,ioos:station:wmo:42887:1,2010-09-03T05:20:00Z,28.1910,-88.4960,48.2,2.8,152.0,99.0,'11111222,11111222,11144222' 
ADCP,ioos:station:wmo:42887:1,2010-09-03T05:40:00Z,28.1910,-88.4960,48.2,2.5,168.0,99.0,'11111222,11111222,11144222' 
ADCP,ioos:station:wmo:42887:1,2010-09-03T06:00:00Z,28.1910,-88.4960,48.2,3.3,173.0,99.0,'11111222,11111222,11144222' 
ADCP,ioos:station:wmo:42887:1,2010-09-03T06:20:00Z,28.1910,-88.4960,48.2,2.9,172.0,99.0,'11111222,11111222,11144222' 
ADCP,ioos:station:wmo:42887:1,2010-09-03T06:40:00Z,28.1910,-88.4960,48.2,3.1,175.0,99.0,'11111222,11111222,11144222' 
ADCP,ioos:station:wmo:42887:1,2010-09-03T07:00:00Z,28.1910,-88.4960,48.2,2.0,165.0,99.0,'11111222,11111222,11144222' 
ADCP,ioos:station:wmo:42887:1,2010-09-03T07:20:00Z,28.1910,-88.4960,48.2,1.7,153.0,99.0,'11111222,11111222,11144222' 
ADCP,ioos:station:wmo:42887:1,2010-09-03T07:40:00Z,28.1910,-88.4960,48.2,2.1,158.0,99.0,'11111222,11111222,11144222' 
ADCP,ioos:station:wmo:42887:1,2010-09-03T08:00:00Z,28.1910,-88.4960,48.2,2.0,171.0,99.0,'11111222,11111222,11144222' 
ADCP,ioos:station:wmo:42887:1,2010-09-03T08:20:00Z,28.1910,-88.4960,48.2,1.2,125.0,99.0,'11111222,11111222,11144222' 
ADCP,ioos:station:wmo:42887:1,2010-09-03T08:40:00Z,28.1910,-88.4960,48.2,1.5,153.0,99.0,'11111222,11111222,11144222' 
ADCP,ioos:station:wmo:42887:1,2010-09-03T09:00:00Z,28.1910,-88.4960,48.2,2.1,140.0,99.0,'11111222,11111222,11144222' 
ADCP,ioos:station:wmo:42887:1,2010-09-03T09:20:00Z,28.1910,-88.4960,48.2,1.3,124.0,99.0,'11111222,11111222,11144222' 
ADCP,ioos:station:wmo:42887:1,2010-09-03T09:40:00Z,28.1910,-88.4960,48.2,1.2,123.0,99.0,'11111222,11111222,11144222' 
ADCP,ioos:station:wmo:42887:1,2010-09-03T10:00:00Z,28.1910,-88.4960,48.2,1.3,123.0,99.0,'11111222,11111222,11144222' 
ADCP,ioos:station:wmo:42887:1,2010-09-03T10:20:00Z,28.1910,-88.4960,48.2,1.8,112.0,99.0,'11111222,11111222,11144222' 
ADCP,ioos:station:wmo:42887:1,2010-09-03T10:40:00Z,28.1910,-88.4960,48.2,1.6,81.0,99.0,'11111222,11111222,11144222' 
ADCP,ioos:station:wmo:42887:1,2010-09-03T11:00:00Z,28.1910,-88.4960,48.2,1.4,90.0,99.0,'11111222,11111222,11144222' 
ADCP,ioos:station:wmo:42887:1,2010-09-03T11:20:00Z,28.1910,-88.4960,48.2,2.5,94.0,99.0,'11111222,11111222,11144222' 
ADCP,ioos:station:wmo:42887:1,2010-09-03T11:40:00Z,28.1910,-88.4960,48.2,2.5,75.0,99.0,'11111222,11111222,11144222' 
ADCP,ioos:station:wmo:42887:1,2010-09-03T12:00:00Z,28.1910,-88.4960,48.2,1.8,66.0,99.0,'11111222,11111222,11144222' 
ADCP,ioos:station:wmo:42887:1,2010-09-03T12:20:00Z,28.1910,-88.4960,48.2,3.4,67.0,99.0,'11111222,11111222,11144222' 
ADCP,ioos:station:wmo:42887:1,2010-09-03T12:40:00Z,28.1910,-88.4960,48.2,2.8,65.0,99.0,'11111222,11111222,11144222' 
ADCP,ioos:station:wmo:42887:1,2010-09-03T13:00:00Z,28.1910,-88.4960,48.2,4.0,76.0,99.0,'11111222,11111222,11144222' 
ADCP,ioos:station:wmo:42887:1,2010-09-03T13:20:00Z,28.1910,-88.4960,48.2,2.9,91.0,99.0,'11111222,11111222,11144222' 
ADCP,ioos:station:wmo:42887:1,2010-09-03T13:40:00Z,28.1910,-88.4960,48.2,3.9,82.0,99.0,'11111222,11111222,11144222' 
ADCP,ioos:station:wmo:42887:1,2010-09-03T14:00:00Z,28.1910,-88.4960,48.2,4.3,80.0,99.0,'11111222,11111222,11144222' 
ADCP,ioos:station:wmo:42887:1,2010-09-03T14:20:00Z,28.1910,-88.4960,48.2,3.9,77.0,99.0,'11111222,11111222,11144222' 
ADCP,ioos:station:wmo:42887:1,2010-09-03T14:40:00Z,28.1910,-88.4960,48.2,4.4,82.0,99.0,'11111222,11111222,11144222' 
ADCP,ioos:station:wmo:42887:1,2010-09-03T15:00:00Z,28.1910,-88.4960,48.2,4.0,92.0,99.0,'11111222,11111222,11144222' 
ADCP,ioos:station:wmo:42887:1,2010-09-03T15:20:00Z,28.1910,-88.4960,48.2,3.2,91.0,99.0,'11111222,11111222,11144222' 
ADCP,ioos:station:wmo:42887:1,2010-09-03T15:40:00Z,28.1910,-88.4960,48.2,3.8,91.0,99.0,'11111222,11111222,11144222' 
ADCP,ioos:station:wmo:42887:1,2010-09-03T16:00:00Z,28.1910,-88.4960,48.2,3.3,105.0,99.0,'11111222,11111222,11144222' 
ADCP,ioos:station:wmo:42887:1,2010-09-03T16:20:00Z,28.1910,-88.4960,48.2,3.3,100.0,99.0,'11111222,11111222,11144222' 
ADCP,ioos:station:wmo:42887:1,2010-09-03T16:40:00Z,28.1910,-88.4960,48.2,2.9,88.0,99.0,'11111222,11111222,11144222' 
ADCP,ioos:station:wmo:42887:1,2010-09-03T17:00:00Z,28.1910,-88.4960,48.2,3.3,88.0,99.0,'11111222,11111222,11144222' 
ADCP,ioos:station:wmo:42887:1,2010-09-03T17:20:00Z,28.1910,-88.4960,48.2,3.3,104.0,99.0,'11111222,11111222,11144222' 
ADCP,ioos:station:wmo:42887:1,2010-09-03T17:40:00Z,28.1910,-88.4960,48.2,3.4,92.0,99.0,'11111222,11111222,11144222' 
ADCP,ioos:station:wmo:42887:1,2010-09-03T18:00:00Z,28.1910,-88.4960,48.2,3.2,97.0,99.0,'11111222,11111222,11144222' 
ADCP,ioos:station:wmo:42887:1,2010-09-03T18:20:00Z,28.1910,-88.4960,48.2,2.7,99.0,99.0,'11111222,11111222,11144222' 
ADCP,ioos:station:wmo:42887:1,2010-09-03T18:40:00Z,28.1910,-88.4960,48.2,2.7,104.0,99.0,'11111222,11111222,11144222' 
ADCP,ioos:station:wmo:42887:1,2010-09-03T19:00:00Z,28.1910,-88.4960,48.2,2.6,109.0,99.0,'11111222,11111222,11144222' 
ADCP,ioos:station:wmo:42887:1,2010-09-03T19:20:00Z,28.1910,-88.4960,48.2,3.7,88.0,99.0,'11111222,11111222,11144222' 
ADCP,ioos:station:wmo:42887:1,2010-09-03T19:40:00Z,28.1910,-88.4960,48.2,3.5,96.0,99.0,'11111222,11111222,11144222' 
ADCP,ioos:station:wmo:42887:1,2010-09-03T20:00:00Z,28.1910,-88.4960,48.2,3.2,88.0,99.0,'11111222,11111222,11144222' 
ADCP,ioos:station:wmo:42887:1,2010-09-03T20:20:00Z,28.1910,-88.4960,48.2,2.4,78.0,99.0,'11111222,11111222,11144222' 